Home > Weather > Potsdam > Past weeks

Flag for Germany Weather for the Past 2 Weeks in Potsdam, Brandenburg, Germany

Now
45 °F

Partly sunny.


Feels Like: 37 °F
Forecast: 38 / 43 °F
Wind: 17 mph from West

Location: Berlin-Tegel

Current Time: Feb 10, 2016 at 2:47:05 PM

Latest Report: Feb 10, 2016 at 2:20 PM


Visibility: N/A

Pressure: 29.27 "Hg

Humidity: 57%

Dew point: 30 °F

Location of PotsdamLocation

Historic Weather in Potsdam — Graph

°F

Potsdam Temperature Yesterday

Maximum temperature yesterday: 50 °F (at 11:20 PM)
Minimum temperature yesterday: 43 °F (at 5:50 PM)
Average temperature yesterday: 47 °F

High & Low Weather Summary for the Past Weeks

 TemperatureHumidityPressure
High54 °F (Jan 27, 12:20 PM)100% (Feb 1, 12:20 PM)30.24 "Hg (Feb 1, 12:20 PM)
Low30 °F (Feb 5, 5:20 AM)44% (Feb 2, 1:20 PM)28.94 "Hg (Feb 9, 9:50 PM)
Average44 °F74%29.81 "Hg
* Reported Jan 26 1:20 PM — Feb 10 1:50 PM, Potsdam, Weather by CustomWeather, © 2016

Note: Actual official high and low records may vary slightly from our data, if they occured in-between our weather recording intervals... More about our weather records

Advertising

Potsdam Weather History for the Previous 24 Hours

 ConditionsComfort  
Time TempWeatherWind HumidityBarometerVisibility
1:50 PM
Wed, Feb 10
45 °FPartly sunny.14 mph57%29.27 "HgN/A
1:20 PM45 °FScattered clouds.13 mph57%29.27 "HgN/A
12:50 PM45 °FPassing clouds.15 mph57%29.27 "HgN/A
12:20 PM45 °FScattered clouds.14 mph57%29.27 "HgN/A
11:50 AM45 °FScattered clouds.16 mph57%29.30 "HgN/A
11:20 AM43 °FScattered clouds.18 mph61%29.30 "HgN/A
10:50 AM43 °FScattered clouds.16 mph61%29.30 "HgN/A
10:20 AM43 °FScattered clouds.13 mph66%29.27 "HgN/A
9:50 AM41 °FPartly sunny.14 mph70%29.27 "HgN/A
9:20 AM41 °FBroken clouds.13 mph66%29.27 "HgN/A
8:50 AM39 °FPartly sunny.14 mph70%29.27 "HgN/A
8:20 AM39 °FPartly sunny.14 mph70%29.27 "HgN/A
7:50 AM39 °FPartly sunny.15 mph70%29.24 "HgN/A
7:20 AM39 °FPartly cloudy.14 mph70%29.24 "HgN/A
6:50 AM39 °FPartly cloudy.13 mph75%29.24 "HgN/A
6:20 AM39 °FPassing clouds.14 mph75%29.21 "HgN/A
5:50 AM39 °FPassing clouds.16 mph75%29.21 "HgN/A
5:20 AM39 °FPassing clouds.17 mph70%29.18 "HgN/A
4:50 AM41 °FPassing clouds.18 mph70%29.18 "HgN/A
4:20 AM41 °FPassing clouds.18 mph70%29.18 "HgN/A
3:50 AM41 °FPassing clouds.22 mph70%29.15 "HgN/A
3:20 AM41 °FPassing clouds.25 mph70%29.15 "HgN/A
2:50 AM41 °FPassing clouds.26 mph70%29.12 "HgN/A
2:20 AM41 °FPassing clouds.28 mph70%29.09 "HgN/A
1:50 AM41 °FPassing clouds.31 mph70%29.06 "HgN/A
1:20 AM43 °FPassing clouds.33 mph66%29.06 "HgN/A
12:20 AM50 °FPassing clouds.28 mph62%28.94 "HgN/A
11:50 PM
Tue, Feb 9
50 °FPassing clouds.17 mph71%28.94 "HgN/A
11:20 PM50 °FPartly cloudy.17 mph71%28.94 "HgN/A
10:20 PM48 °FPartly cloudy.14 mph82%28.94 "HgN/A
9:50 PM48 °FClear.17 mph76%28.94 "Hg10 mi
9:20 PM48 °FPassing clouds.17 mph76%28.97 "HgN/A
8:50 PM46 °FPartly cloudy.18 mph87%28.97 "HgN/A
8:20 PM46 °FPartly cloudy.15 mph82%29.00 "HgN/A
7:50 PM46 °FLight rain. Partly cloudy.15 mph87%29.03 "HgN/A
7:20 PM45 °FLight rain. Passing clouds.16 mph87%29.06 "HgN/A
6:50 PM45 °FLight rain. Passing clouds.15 mph87%29.06 "HgN/A
6:20 PM45 °FLight rain. Passing clouds.16 mph87%29.09 "HgN/A
5:50 PM43 °FLight rain. Passing clouds.15 mph93%29.12 "HgN/A
5:20 PM45 °FLight rain. Passing clouds.18 mph81%29.15 "HgN/A
4:50 PM46 °FLight rain. Broken clouds.13 mph71%29.18 "HgN/A
4:20 PM46 °FLight rain. Partly sunny.13 mph71%29.21 "HgN/A
3:20 PM48 °FPartly sunny.14 mph58%29.27 "HgN/A
2:20 PM48 °FBroken clouds.14 mph58%29.30 "HgN/A
Weather by CustomWeather, © 2016

See weather overviewHow to use our weather pages